,,,PA_Meas_PMT16A,,PR_Meas_QMR101_102,,RH_Meas_QMH101,,SR_Meas_QMS101,,TA_Meas_QMH101,,GenWind,,GenWind,
date,time,status,PA,status,PR,status,RH,status,SR,status,TA,status,DirAvg,status,SpdAvg,
2010-12-13, 00:00:05,VALID,997.979,VALID,0,VALID,88.1832,VALID,0,VALID,24.5209,VALID,8,VALID,0,
2010-12-13, 00:01:05,VALID,997.962,VALID,0,VALID,88.351,VALID,0,VALID,24.5209,VALID,47,VALID,0.697266,
2010-12-13, 00:02:05,VALID,997.982,VALID,0,VALID,88.29,VALID,0,VALID,24.4995,VALID,59,VALID,0.598828,
2010-12-13, 00:03:05,VALID,997.99,VALID,0,VALID,88.351,VALID,0,VALID,24.5599,VALID,61,VALID,0.619922,
2010-12-13, 00:04:05,VALID,997.984,VALID,0,VALID,88.4807,VALID,0,VALID,24.5775,VALID,61,VALID,0.619141,
2010-12-13, 00:05:05,VALID,998.027,VALID,0,VALID,88.7477,VALID,0,VALID,24.6184,VALID,61,VALID,0.568359,
2010-12-13, 00:06:05,VALID,998.038,VALID,0,VALID,88.9614,VALID,0,VALID,24.638,VALID,73,VALID,0.650781,
2010-12-13, 00:07:05,VALID,998.031,VALID,0,VALID,88.8698,VALID,0,VALID,24.6166,VALID,126,VALID,0.903125,
2010-12-13, 00:08:05,VALID,998.044,VALID,0,VALID,88.6714,VALID,0,VALID,24.6166,VALID,128,VALID,0.958984,
2010-12-13, 00:09:05,VALID,998.07,VALID,0,VALID,88.6867,VALID,0,VALID,24.6556,VALID,128,VALID,1.09375,
2010-12-13, 00:10:05,VALID,998.064,VALID,0,VALID,88.8088,VALID,0,VALID,24.6946,VALID,128,VALID,0.750391,
2010-12-13, 00:11:05,VALID,998.058,VALID,0,VALID,88.8774,VALID,0,VALID,24.7142,VALID,128,VALID,0.528125,
2010-12-13, 00:12:05,VALID,998.112,VALID,0,VALID,88.9843,VALID,0,VALID,24.7142,VALID,115,VALID,0.791797,
2010-12-13, 00:13:05,VALID,998.091,VALID,0,VALID,88.9919,VALID,0,VALID,24.7337,VALID,138,VALID,0.845703,
2010-12-13, 00:14:05,VALID,998.089,VALID,0,VALID,89.0071,VALID,0,VALID,24.7337,VALID,145,VALID,0.951172,
2010-12-13, 00:15:05,VALID,998.086,VALID,0,VALID,88.9537,VALID,0,VALID,24.7746,VALID,154,VALID,0.76875,
2010-12-13, 00:16:05,VALID,998.089,VALID,0,VALID,88.8622,VALID,0,VALID,24.7727,VALID,152,VALID,0.758203,
2010-12-13, 00:17:05,VALID,998.078,VALID,0,VALID,88.7783,VALID,0,VALID,24.8136,VALID,152,VALID,0.917188,
2010-12-13, 00:18:05,VALID,998.069,VALID,0,VALID,88.7249,VALID,0,VALID,24.7922,VALID,153,VALID,0.966016,
2010-12-13, 00:19:05,VALID,998.063,VALID,0,VALID,88.7172,VALID,0,VALID,24.8117,VALID,154,VALID,0.721484,
2010-12-13, 00:20:05,VALID,998.053,VALID,0,VALID,88.7325,VALID,0,VALID,24.8117,VALID,155,VALID,0.618359,
2010-12-13, 00:21:05,VALID,998.042,VALID,0,VALID,88.7249,VALID,0,VALID,24.8117,VALID,155,VALID,0.694922,
2010-12-13, 00:22:05,VALID,998.046,VALID,0,VALID,88.6791,VALID,0,VALID,24.7922,VALID,155,VALID,0.871875,
2010-12-13, 00:23:05,VALID,998.045,VALID,0,VALID,88.4578,VALID,0,VALID,24.8332,VALID,158,VALID,0.660547,
2010-12-13, 00:24:05,VALID,998.002,VALID,0,VALID,88.3281,VALID,0,VALID,24.8313,VALID,158,VALID,0.564453,
2010-12-13, 00:25:05,VALID,997.999,VALID,0,VALID,88.2747,VALID,0,VALID,24.8313,VALID,158,VALID,0.317187,
2010-12-13, 00:26:05,VALID,997.99,VALID,0,VALID,88.145,VALID,0,VALID,24.8508,VALID,158,VALID,0.183984,
2010-12-13, 00:27:05,VALID,997.986,VALID,0,VALID,88.0534,VALID,0,VALID,24.8508,VALID,158,VALID,0.0117188,
2010-12-13, 00:28:05,VALID,997.982,VALID,0,VALID,87.8246,VALID,0,VALID,24.8527,VALID,158,VALID,0,
2010-12-13, 00:29:05,VALID,997.955,VALID,0,VALID,87.9695,VALID,0,VALID,24.8313,VALID,158,VALID,0,
2010-12-13, 00:30:05,VALID,997.932,VALID,0,VALID,88.29,VALID,0,VALID,24.8508,VALID,158,VALID,0.388672,
2010-12-13, 00:31:05,VALID,997.932,VALID,0,VALID,88.2137,VALID,0,VALID,24.8508,VALID,158,VALID,0.527734,
2010-12-13, 00:32:05,VALID,997.922,VALID,0,VALID,88.0382,VALID,0,VALID,24.8508,VALID,158,VALID,0.569141,
2010-12-13, 00:33:05,VALID,997.91,VALID,0,VALID,88.0153,VALID,0,VALID,24.8703,VALID,158,VALID,0.505859,
2010-12-13, 00:34:05,VALID,997.868,VALID,0,VALID,88.1832,VALID,0,VALID,24.8703,VALID,158,VALID,0.412891,
2010-12-13, 00:35:05,VALID,997.851,VALID,0,VALID,88.2976,VALID,0,VALID,24.8722,VALID,158,VALID,0.410937,
2010-12-13, 00:36:05,VALID,997.839,VALID,0,VALID,88.557,VALID,0,VALID,24.8703,VALID,158,VALID,0.486328,
2010-12-13, 00:37:05,VALID,997.827,VALID,0,VALID,88.5875,VALID,0,VALID,24.8508,VALID,158,VALID,0.457422,
2010-12-13, 00:38:05,VALID,997.808,VALID,0,VALID,88.4502,VALID,0,VALID,24.8508,VALID,158,VALID,0.452734,
2010-12-13, 00:39:05,VALID,997.782,VALID,0,VALID,88.557,VALID,0,VALID,24.8722,VALID,20,VALID,0.960547,
2010-12-13, 00:40:05,VALID,997.794,VALID,0,VALID,88.7172,VALID,0,VALID,24.8508,VALID,17,VALID,1.03516,
2010-12-13, 00:41:05,VALID,997.758,VALID,0,VALID,88.824,VALID,0,VALID,24.8313,VALID,22,VALID,0.9625,
2010-12-13, 00:42:05,VALID,997.781,VALID,0,VALID,88.8622,VALID,0,VALID,24.8313,VALID,22,VALID,0.873828,
2010-12-13, 00:43:05,VALID,997.747,VALID,0,VALID,89.0453,VALID,0.112286,VALID,24.8117,VALID,22,VALID,0.685938,
2010-12-13, 00:44:05,VALID,997.75,VALID,0,VALID,89.1521,VALID,0,VALID,24.7922,VALID,22,VALID,0.565625,
2010-12-13, 00:45:05,VALID,997.76,VALID,0,VALID,89.2818,VALID,0,VALID,24.7922,VALID,22,VALID,0.200391,
2010-12-13, 00:46:05,VALID,997.723,VALID,0,VALID,89.3581,VALID,0,VALID,24.7532,VALID,22,VALID,0.111719,
2010-12-13, 00:47:05,VALID,997.724,VALID,0,VALID,89.3428,VALID,0,VALID,24.7337,VALID,22,VALID,0.0601562,
2010-12-13, 00:48:05,VALID,997.73,VALID,0,VALID,89.4039,VALID,0,VALID,24.7551,VALID,22,VALID,0.126172,
2010-12-13, 00:49:05,VALID,997.732,VALID,0,VALID,89.5031,VALID,0,VALID,24.7337,VALID,22,VALID,0.0140625,
2010-12-13, 00:50:05,VALID,997.722,VALID,0,VALID,89.5412,VALID,0,VALID,24.7337,VALID,22,VALID,0,
2010-12-13, 00:51:05,VALID,997.73,VALID,0,VALID,89.5107,VALID,0,VALID,24.7356,VALID,22,VALID,0,
2010-12-13, 00:52:05,VALID,997.698,VALID,0,VALID,89.5794,VALID,0,VALID,24.7337,VALID,22,VALID,0.360156,
2010-12-13, 00:53:05,VALID,997.689,VALID,0,VALID,89.5717,VALID,0,VALID,24.7142,VALID,22,VALID,0.499609,
2010-12-13, 00:54:05,VALID,997.698,VALID,0,VALID,89.5412,VALID,0,VALID,24.7142,VALID,22,VALID,0.682813,
2010-12-13, 00:55:05,VALID,997.669,VALID,0,VALID,89.5946,VALID,0,VALID,24.7142,VALID,22,VALID,1.04844,
2010-12-13, 00:56:05,VALID,997.69,VALID,0,VALID,89.4039,VALID,0,VALID,24.6965,VALID,22,VALID,1.23242,
2010-12-13, 00:57:05,VALID,997.683,VALID,0,VALID,89.32,VALID,0,VALID,24.6751,VALID,24,VALID,1.24609,
2010-12-13, 00:58:05,VALID,997.678,VALID,0,VALID,89.0529,VALID,0,VALID,24.6166,VALID,19,VALID,1.49961,
2010-12-13, 00:59:05,VALID,997.659,VALID,0,VALID,88.5723,VALID,0,VALID,24.5971,VALID,15,VALID,1.81406,
2010-12-13, 01:00:05,VALID,997.637,VALID,0,VALID,88.3739,VALID,0,VALID,24.6166,VALID,12,VALID,1.41992,
2010-12-13, 01:01:05,VALID,997.624,VALID,0,VALID,88.3129,VALID,0,VALID,24.638,VALID,13,VALID,1.49023,
2010-12-13, 01:02:05,VALID,997.592,VALID,0,VALID,88.1755,VALID,0,VALID,24.6166,VALID,13,VALID,1.4957,
2010-12-13, 01:03:05,VALID,997.532,VALID,0,VALID,88.1297,VALID,0,VALID,24.638,VALID,10,VALID,1.30469,
2010-12-13, 01:04:05,VALID,997.551,VALID,0,VALID,88.1984,VALID,0,VALID,24.6166,VALID,8,VALID,1.12656,
2010-12-13, 01:05:05,VALID,997.567,VALID,0,VALID,88.2747,VALID,0,VALID,24.5971,VALID,8,VALID,0.989062,
2010-12-13, 01:06:05,VALID,997.541,VALID,0,VALID,88.3892,VALID,0,VALID,24.5971,VALID,5,VALID,0.782422,
2010-12-13, 01:07:05,VALID,997.554,VALID,0,VALID,88.4502,VALID,0,VALID,24.558,VALID,5,VALID,0.898047,
2010-12-13, 01:08:05,VALID,997.571,VALID,0,VALID,88.4426,VALID,0,VALID,24.558,VALID,16,VALID,0.834766,
2010-12-13, 01:09:05,VALID,997.567,VALID,0,VALID,88.4654,VALID,0,VALID,24.5385,VALID,16,VALID,0.630469,
2010-12-13, 01:10:05,VALID,997.574,VALID,0,VALID,88.4883,VALID,0,VALID,24.519,VALID,16,VALID,0.767969,
2010-12-13, 01:11:05,VALID,997.573,VALID,0,VALID,88.4044,VALID,0,VALID,24.4995,VALID,7,VALID,1.07969,
2010-12-13, 01:12:05,VALID,997.603,VALID,0,VALID,88.3129,VALID,0,VALID,24.519,VALID,18,VALID,0.802344,
2010-12-13, 01:13:05,VALID,997.581,VALID,0,VALID,88.2671,VALID,0,VALID,24.519,VALID,18,VALID,1.04219,
2010-12-13, 01:14:05,VALID,997.6,VALID,0,VALID,88.3281,VALID,0,VALID,24.5013,VALID,21,VALID,1.23008,
2010-12-13, 01:15:05,VALID,997.587,VALID,0,VALID,88.4502,VALID,0,VALID,24.4623,VALID,14,VALID,1.20938,
2010-12-13, 01:16:05,VALID,997.563,VALID,0,VALID,88.5875,VALID,0,VALID,24.4428,VALID,16,VALID,1.18086,
2010-12-13, 01:17:05,VALID,997.58,VALID,0,VALID,88.7249,VALID,0,VALID,24.3824,VALID,16,VALID,1.04805,
2010-12-13, 01:18:05,VALID,997.578,VALID,0,VALID,88.8698,VALID,0,VALID,24.3629,VALID,15,VALID,0.940625,
2010-12-13, 01:19:05,VALID,997.575,VALID,0,VALID,89.0071,VALID,0,VALID,24.3433,VALID,14,VALID,0.814844,
2010-12-13, 01:20:05,VALID,997.588,VALID,0,VALID,89.0911,VALID,0,VALID,24.3238,VALID,17,VALID,0.897266,
2010-12-13, 01:21:05,VALID,997.57,VALID,0,VALID,89.175,VALID,0,VALID,24.3238,VALID,17,VALID,0.741406,
2010-12-13, 01:22:05,VALID,997.571,VALID,0,VALID,89.3123,VALID,0,VALID,24.3452,VALID,37,VALID,0.974609,
2010-12-13, 01:23:05,VALID,997.562,VALID,0,VALID,89.4497,VALID,0,VALID,24.3043,VALID,37,VALID,1.15195,
2010-12-13, 01:24:05,VALID,997.552,VALID,0,VALID,89.4191,VALID,0,VALID,24.2848,VALID,42,VALID,1.51328,
2010-12-13, 01:25:05,VALID,997.527,VALID,0,VALID,89.3734,VALID,0,VALID,24.2848,VALID,43,VALID,1.70977,
2010-12-13, 01:26:05,VALID,997.528,VALID,0,VALID,89.4191,VALID,0,VALID,24.2848,VALID,47,VALID,1.38203,
2010-12-13, 01:27:05,VALID,997.477,VALID,0,VALID,89.4649,VALID,0,VALID,24.2653,VALID,41,VALID,1.18047,
2010-12-13, 01:28:05,VALID,997.474,VALID,0,VALID,89.5565,VALID,0,VALID,24.2653,VALID,39,VALID,0.747656,
2010-12-13, 01:29:05,VALID,997.478,VALID,0,VALID,89.6251,VALID,0,VALID,24.2458,VALID,39,VALID,0.600781,
2010-12-13, 01:30:05,VALID,997.448,VALID,0,VALID,89.6938,VALID,0.112286,VALID,24.2458,VALID,39,VALID,0.551172,
2010-12-13, 01:31:05,VALID,997.449,VALID,0,VALID,89.7625,VALID,0,VALID,24.2263,VALID,31,VALID,0.494922,
2010-12-13, 01:32:05,VALID,997.456,VALID,0,VALID,89.7625,VALID,0,VALID,24.2067,VALID,29,VALID,0.582031,
2010-12-13, 01:33:05,VALID,997.448,VALID,0,VALID,89.8083,VALID,0,VALID,24.2086,VALID,25,VALID,0.502344,
2010-12-13, 01:34:05,VALID,997.488,VALID,0,VALID,89.8464,VALID,0,VALID,24.1872,VALID,25,VALID,0.53125,
2010-12-13, 01:35:05,VALID,997.535,VALID,0,VALID,89.9532,VALID,0.112286,VALID,24.1872,VALID,25,VALID,0.674219,
2010-12-13, 01:36:05,VALID,997.538,VALID,0,VALID,90.06,VALID,0,VALID,24.1872,VALID,25,VALID,0.553906,
2010-12-13, 01:37:05,VALID,997.569,VALID,0,VALID,90.2126,VALID,0,VALID,24.2086,VALID,25,VALID,0.546875,
2010-12-13, 01:38:05,VALID,997.622,VALID,0,VALID,90.2813,VALID,0,VALID,24.2067,VALID,52,VALID,0.554297,
2010-12-13, 01:39:05,VALID,997.654,VALID,0,VALID,90.3423,VALID,0,VALID,24.2263,VALID,77,VALID,0.652734,
2010-12-13, 01:40:05,VALID,997.698,VALID,0,VALID,90.35,VALID,0,VALID,24.2458,VALID,98,VALID,0.670703,
2010-12-13, 01:41:05,VALID,997.736,VALID,0,VALID,90.3118,VALID,0.112286,VALID,24.2458,VALID,98,VALID,0.736328,
2010-12-13, 01:42:05,VALID,997.745,VALID,0,VALID,90.2279,VALID,0,VALID,24.2866,VALID,98,VALID,0.682422,
2010-12-13, 01:43:05,VALID,997.741,VALID,0,VALID,90.1134,VALID,0,VALID,24.2458,VALID,98,VALID,0.719141,
2010-12-13, 01:44:05,VALID,997.776,VALID,0,VALID,89.9685,VALID,0,VALID,24.2653,VALID,98,VALID,0.682031,
2010-12-13, 01:45:05,VALID,997.777,VALID,0,VALID,89.6251,VALID,0,VALID,24.2866,VALID,98,VALID,0.9125,
2010-12-13, 01:46:05,VALID,997.743,VALID,0,VALID,89.2513,VALID,0,VALID,24.3043,VALID,98,VALID,0.673437,
2010-12-13, 01:47:05,VALID,997.79,VALID,0,VALID,89.0606,VALID,0.112286,VALID,24.3238,VALID,98,VALID,0.454297,
2010-12-13, 01:48:05,VALID,997.764,VALID,0,VALID,89.0758,VALID,0,VALID,24.3842,VALID,101,VALID,0.49375,
2010-12-13, 01:49:05,VALID,997.728,VALID,0,VALID,89.2132,VALID,0,VALID,24.3842,VALID,101,VALID,0.437891,
2010-12-13, 01:50:05,VALID,997.746,VALID,0,VALID,89.3047,VALID,0,VALID,24.3824,VALID,101,VALID,0.390625,
2010-12-13, 01:51:05,VALID,997.738,VALID,0,VALID,89.3505,VALID,0,VALID,24.3824,VALID,101,VALID,0.4125,
2010-12-13, 01:52:05,VALID,997.743,VALID,0,VALID,89.2971,VALID,0,VALID,24.3824,VALID,101,VALID,0.335156,
2010-12-13, 01:53:05,VALID,997.744,VALID,0,VALID,89.1597,VALID,0,VALID,24.3824,VALID,101,VALID,0.182812,
2010-12-13, 01:54:05,VALID,997.775,VALID,0,VALID,89.0224,VALID,0,VALID,24.4233,VALID,101,VALID,0,
2010-12-13, 01:55:04,VALID,997.774,VALID,0,VALID,89.1292,VALID,0,VALID,24.4233,VALID,101,VALID,0.209766,
2010-12-13, 01:56:04,VALID,997.773,VALID,0,VALID,89.2284,VALID,0,VALID,24.4019,VALID,101,VALID,0.23125,
2010-12-13, 01:57:04,VALID,997.789,VALID,0,VALID,89.3352,VALID,0,VALID,24.4233,VALID,101,VALID,0.376172,
2010-12-13, 01:58:04,VALID,997.76,VALID,0,VALID,89.381,VALID,0,VALID,24.4019,VALID,101,VALID,0.240234,
2010-12-13, 01:59:04,VALID,997.749,VALID,0,VALID,89.2971,VALID,0,VALID,24.3824,VALID,101,VALID,0.311719,
2010-12-13, 02:00:04,VALID,997.752,VALID,0,VALID,89.2589,VALID,0,VALID,24.4233,VALID,101,VALID,0.525781,
2010-12-13, 02:01:04,VALID,997.749,VALID,0,VALID,89.2589,VALID,0,VALID,24.4019,VALID,344,VALID,0.602734,
2010-12-13, 02:02:04,VALID,997.715,VALID,0,VALID,89.3276,VALID,0.112286,VALID,24.4019,VALID,344,VALID,0.560938,
2010-12-13, 02:03:04,VALID,997.704,VALID,0,VALID,89.3352,VALID,0,VALID,24.3629,VALID,344,VALID,0.420312,
2010-12-13, 02:04:04,VALID,997.676,VALID,0,VALID,89.3963,VALID,0,VALID,24.3629,VALID,344,VALID,0.375781,
2010-12-13, 02:05:04,VALID,997.65,VALID,0,VALID,89.4497,VALID,0,VALID,24.3824,VALID,344,VALID,0.419531,
2010-12-13, 02:06:04,VALID,997.636,VALID,0,VALID,89.4191,VALID,0,VALID,24.4019,VALID,344,VALID,0.39375,
2010-12-13, 02:07:04,VALID,997.604,VALID,0,VALID,89.2971,VALID,0,VALID,24.4019,VALID,344,VALID,0.303906,
2010-12-13, 02:08:04,VALID,997.588,VALID,0,VALID,89.2437,VALID,0,VALID,24.4214,VALID,344,VALID,0.232422,
2010-12-13, 02:09:04,VALID,997.574,VALID,0,VALID,89.2284,VALID,0,VALID,24.4214,VALID,344,VALID,0.418359,
2010-12-13, 02:10:04,VALID,997.542,VALID,0,VALID,89.1826,VALID,0,VALID,24.4214,VALID,344,VALID,0.461719,
2010-12-13, 02:11:04,VALID,997.522,VALID,0,VALID,89.2284,VALID,0,VALID,24.4214,VALID,344,VALID,0.626953,
2010-12-13, 02:12:04,VALID,997.485,VALID,0,VALID,89.1903,VALID,0,VALID,24.4214,VALID,344,VALID,0.719141,
2010-12-13, 02:13:04,VALID,997.489,VALID,0,VALID,89.1674,VALID,0,VALID,24.4233,VALID,344,VALID,0.846875,
2010-12-13, 02:14:04,VALID,997.459,VALID,0,VALID,89.0758,VALID,0,VALID,24.4019,VALID,5,VALID,0.910156,
2010-12-13, 02:15:04,VALID,997.447,VALID,0,VALID,89.0148,VALID,0,VALID,24.4037,VALID,5,VALID,0.765625,
2010-12-13, 02:16:04,VALID,997.443,VALID,0,VALID,89.0987,VALID,0,VALID,24.3629,VALID,5,VALID,0.624219,
2010-12-13, 02:17:04,VALID,997.448,VALID,0,VALID,89.1979,VALID,0,VALID,24.3238,VALID,5,VALID,0.292188,
2010-12-13, 02:18:04,VALID,997.453,VALID,0,VALID,89.3123,VALID,0,VALID,24.3043,VALID,5,VALID,0,
2010-12-13, 02:19:04,VALID,997.466,VALID,0,VALID,89.3963,VALID,0,VALID,24.2848,VALID,5,VALID,0,
2010-12-13, 02:20:04,VALID,997.437,VALID,0,VALID,89.5107,VALID,0,VALID,24.2458,VALID,5,VALID,0,
2010-12-13, 02:21:04,VALID,997.438,VALID,0,VALID,89.5489,VALID,0,VALID,24.2476,VALID,5,VALID,0,
2010-12-13, 02:22:04,VALID,997.462,VALID,0,VALID,89.587,VALID,0,VALID,24.2067,VALID,5,VALID,0,
2010-12-13, 02:23:04,VALID,997.456,VALID,0,VALID,89.6862,VALID,0,VALID,24.2067,VALID,5,VALID,0,
2010-12-13, 02:24:04,VALID,997.452,VALID,0,VALID,89.7854,VALID,0,VALID,24.2086,VALID,5,VALID,0.00664063,
2010-12-13, 02:25:04,VALID,997.451,VALID,0,VALID,89.8769,VALID,0,VALID,24.1872,VALID,5,VALID,0.410547,
2010-12-13, 02:26:04,VALID,997.46,VALID,0,VALID,89.9456,VALID,0,VALID,24.1872,VALID,5,VALID,0.462891,
2010-12-13, 02:27:04,VALID,997.472,VALID,0,VALID,90.0066,VALID,0,VALID,24.1872,VALID,20,VALID,0.634375,
2010-12-13, 02:28:04,VALID,997.428,VALID,0,VALID,90.0524,VALID,0,VALID,24.2067,VALID,71,VALID,0.95,
2010-12-13, 02:29:04,VALID,997.425,VALID,0,VALID,90.2279,VALID,0,VALID,24.2458,VALID,78,VALID,0.855078,
2010-12-13, 02:30:04,VALID,997.409,VALID,0,VALID,90.3576,VALID,0,VALID,24.2653,VALID,99,VALID,0.865625,
2010-12-13, 02:31:04,VALID,997.409,VALID,0,VALID,90.5178,VALID,0.112286,VALID,24.3062,VALID,104,VALID,0.814062,
2010-12-13, 02:32:04,VALID,997.38,VALID,0,VALID,90.6017,VALID,0,VALID,24.3043,VALID,104,VALID,0.545703,
2010-12-13, 02:33:04,VALID,997.423,VALID,0,VALID,90.6475,VALID,0,VALID,24.3043,VALID,104,VALID,0.774609,
2010-12-13, 02:34:04,VALID,997.384,VALID,0,VALID,90.6551,VALID,0,VALID,24.3043,VALID,104,VALID,0.676172,
2010-12-13, 02:35:04,VALID,997.374,VALID,0,VALID,90.678,VALID,0,VALID,24.3257,VALID,121,VALID,0.645703,
2010-12-13, 02:36:04,VALID,997.37,VALID,0,VALID,90.7467,VALID,0,VALID,24.3238,VALID,122,VALID,0.461719,
2010-12-13, 02:37:04,VALID,997.366,VALID,0,VALID,90.762,VALID,0,VALID,24.3238,VALID,110,VALID,0.241016,
2010-12-13, 02:38:04,VALID,997.412,VALID,0,VALID,90.8077,VALID,0,VALID,24.3238,VALID,110,VALID,0.260156,
2010-12-13, 02:39:04,VALID,997.382,VALID,0,VALID,90.823,VALID,0,VALID,24.3238,VALID,110,VALID,0.236719,
2010-12-13, 02:40:04,VALID,997.37,VALID,0,VALID,90.8383,VALID,0.112286,VALID,24.3238,VALID,110,VALID,0.382813,
2010-12-13, 02:41:04,VALID,997.379,VALID,0,VALID,90.8459,VALID,0,VALID,24.3433,VALID,110,VALID,0.433984,
2010-12-13, 02:42:04,VALID,997.353,VALID,0,VALID,90.823,VALID,0,VALID,24.3433,VALID,110,VALID,0.289844,
2010-12-13, 02:43:04,VALID,997.356,VALID,0,VALID,90.7849,VALID,0,VALID,24.3433,VALID,110,VALID,0.186719,
2010-12-13, 02:44:04,VALID,997.366,VALID,0,VALID,90.762,VALID,0,VALID,24.3433,VALID,110,VALID,0.219922,
2010-12-13, 02:45:04,VALID,997.329,VALID,0,VALID,90.7314,VALID,0,VALID,24.3629,VALID,110,VALID,0.119922,
2010-12-13, 02:46:04,VALID,997.321,VALID,0,VALID,90.6704,VALID,0,VALID,24.3433,VALID,110,VALID,0.225,
2010-12-13, 02:47:04,VALID,997.293,VALID,0,VALID,90.6399,VALID,0,VALID,24.3433,VALID,110,VALID,0.182422,
2010-12-13, 02:48:04,VALID,997.278,VALID,0,VALID,90.6094,VALID,0,VALID,24.3629,VALID,110,VALID,0.280469,
2010-12-13, 02:49:04,VALID,997.293,VALID,0,VALID,90.5483,VALID,0,VALID,24.3629,VALID,110,VALID,0.191797,
2010-12-13, 02:50:04,VALID,997.311,VALID,0,VALID,90.4949,VALID,0,VALID,24.3629,VALID,110,VALID,0.445313,
2010-12-13, 02:51:04,VALID,997.294,VALID,0,VALID,90.411,VALID,0,VALID,24.3824,VALID,110,VALID,0.496484,
2010-12-13, 02:52:04,VALID,997.303,VALID,0,VALID,90.2966,VALID,0.112286,VALID,24.4233,VALID,110,VALID,0.444531,
2010-12-13, 02:53:04,VALID,997.348,VALID,0,VALID,90.144,VALID,0,VALID,24.4214,VALID,110,VALID,0.507813,
2010-12-13, 02:54:04,VALID,997.368,VALID,0,VALID,89.9074,VALID,0,VALID,24.4409,VALID,110,VALID,0.890234,
2010-12-13, 02:55:04,VALID,997.381,VALID,0,VALID,89.6023,VALID,0,VALID,24.4818,VALID,110,VALID,0.947266,
2010-12-13, 02:56:04,VALID,997.4,VALID,0,VALID,89.381,VALID,0,VALID,24.4995,VALID,111,VALID,1.12461,
2010-12-13, 02:57:04,VALID,997.435,VALID,0,VALID,89.2208,VALID,0,VALID,24.5385,VALID,112,VALID,1.10078,
2010-12-13, 02:58:04,VALID,997.455,VALID,0,VALID,89.0071,VALID,0,VALID,24.5794,VALID,120,VALID,1.08828,
2010-12-13, 02:59:04,VALID,997.433,VALID,0,VALID,88.8622,VALID,0,VALID,24.5794,VALID,120,VALID,0.782031,
2010-12-13, 03:00:04,VALID,997.438,VALID,0,VALID,88.8469,VALID,0,VALID,24.5775,VALID,119,VALID,0.4375,
2010-12-13, 03:01:04,VALID,997.403,VALID,0,VALID,88.8927,VALID,0,VALID,24.5794,VALID,120,VALID,0.115625,
2010-12-13, 03:02:04,VALID,997.395,VALID,0,VALID,88.9003,VALID,0,VALID,24.5794,VALID,120,VALID,0.110156,
2010-12-13, 03:03:04,VALID,997.412,VALID,0,VALID,89.0224,VALID,0,VALID,24.5599,VALID,119,VALID,0,
2010-12-13, 03:04:04,VALID,997.382,VALID,0,VALID,89.1063,VALID,0,VALID,24.5599,VALID,119,VALID,0,
2010-12-13, 03:05:04,VALID,997.455,VALID,0,VALID,89.1368,VALID,0,VALID,24.5599,VALID,120,VALID,0,
2010-12-13, 03:06:04,VALID,997.424,VALID,0,VALID,89.1903,VALID,0,VALID,24.5404,VALID,120,VALID,0,
2010-12-13, 03:07:04,VALID,997.441,VALID,0,VALID,89.2132,VALID,0,VALID,24.5404,VALID,120,VALID,0,
2010-12-13, 03:08:04,VALID,997.443,VALID,0,VALID,89.2437,VALID,0,VALID,24.5404,VALID,120,VALID,0.249219,
2010-12-13, 03:09:04,VALID,997.46,VALID,0,VALID,89.1597,VALID,0,VALID,24.5404,VALID,120,VALID,0.210938,
2010-12-13, 03:10:04,VALID,997.446,VALID,0,VALID,89.0453,VALID,0,VALID,24.5404,VALID,175,VALID,0.688281,
2010-12-13, 03:11:04,VALID,997.441,VALID,0,VALID,88.824,VALID,0,VALID,24.5794,VALID,188,VALID,0.788281,
2010-12-13, 03:12:04,VALID,997.453,VALID,0,VALID,88.6486,VALID,0,VALID,24.5775,VALID,183,VALID,0.412891,
2010-12-13, 03:13:04,VALID,997.426,VALID,0,VALID,88.5494,VALID,0,VALID,24.6166,VALID,183,VALID,0.166016,
2010-12-13, 03:14:04,VALID,997.409,VALID,0,VALID,88.5341,VALID,0,VALID,24.638,VALID,183,VALID,0.0578125,
2010-12-13, 03:15:04,VALID,997.441,VALID,0,VALID,88.5189,VALID,0,VALID,24.6575,VALID,183,VALID,0.151172,
2010-12-13, 03:16:04,VALID,997.449,VALID,0,VALID,88.5723,VALID,0,VALID,24.6361,VALID,183,VALID,0.353516,
2010-12-13, 03:17:04,VALID,997.455,VALID,0,VALID,88.5951,VALID,0,VALID,24.677,VALID,228,VALID,0.304297,
2010-12-13, 03:18:04,VALID,997.448,VALID,0,VALID,88.4731,VALID,0,VALID,24.6965,VALID,228,VALID,0.115234,
2010-12-13, 03:19:04,VALID,997.437,VALID,0,VALID,88.4654,VALID,0,VALID,24.677,VALID,228,VALID,0.075,
2010-12-13, 03:20:04,VALID,997.475,VALID,0,VALID,88.5341,VALID,0,VALID,24.677,VALID,228,VALID,0.450391,
2010-12-13, 03:21:04,VALID,997.485,VALID,0,VALID,88.4426,VALID,0,VALID,24.677,VALID,216,VALID,0.517969,
2010-12-13, 03:22:04,VALID,997.508,VALID,0,VALID,88.2976,VALID,0,VALID,24.716,VALID,216,VALID,0.808203,
2010-12-13, 03:23:04,VALID,997.517,VALID,0,VALID,88.2137,VALID,0,VALID,24.7746,VALID,216,VALID,0.454297,
2010-12-13, 03:24:04,VALID,997.518,VALID,0,VALID,88.1603,VALID,0,VALID,24.7746,VALID,216,VALID,0.640234,
2010-12-13, 03:25:04,VALID,997.554,VALID,0,VALID,87.9466,VALID,0,VALID,24.7551,VALID,184,VALID,0.863281,
2010-12-13, 03:26:04,VALID,997.58,VALID,0,VALID,87.9695,VALID,0,VALID,24.7746,VALID,189,VALID,0.484766,
2010-12-13, 03:27:04,VALID,997.583,VALID,0,VALID,87.9619,VALID,0,VALID,24.7746,VALID,159,VALID,0.993359,
2010-12-13, 03:28:04,VALID,997.578,VALID,0,VALID,87.9237,VALID,0,VALID,24.7356,VALID,156,VALID,1.29375,
2010-12-13, 03:29:04,VALID,997.58,VALID,0,VALID,87.8474,VALID,0,VALID,24.716,VALID,154,VALID,0.977344,
2010-12-13, 03:30:04,VALID,997.569,VALID,0,VALID,87.9314,VALID,0,VALID,24.6965,VALID,163,VALID,1.03594,
2010-12-13, 03:31:04,VALID,997.603,VALID,0,VALID,87.9085,VALID,0,VALID,24.6556,VALID,169,VALID,1.02148,
2010-12-13, 03:32:04,VALID,997.607,VALID,0,VALID,88.0458,VALID,0,VALID,24.6965,VALID,162,VALID,0.881641,
2010-12-13, 03:33:04,VALID,997.62,VALID,0,VALID,87.878,VALID,0,VALID,24.6556,VALID,155,VALID,0.916797,
2010-12-13, 03:34:04,VALID,997.64,VALID,0,VALID,87.7711,VALID,0,VALID,24.6751,VALID,155,VALID,0.984375,
2010-12-13, 03:35:04,VALID,997.655,VALID,0,VALID,87.5804,VALID,0,VALID,24.6965,VALID,155,VALID,0.7625,
2010-12-13, 03:36:04,VALID,997.706,VALID,0,VALID,87.5728,VALID,0,VALID,24.6751,VALID,155,VALID,0.599219,
2010-12-13, 03:37:04,VALID,997.74,VALID,0,VALID,87.5041,VALID,0,VALID,24.6751,VALID,153,VALID,0.777344,
2010-12-13, 03:38:04,VALID,997.757,VALID,0,VALID,87.1684,VALID,0,VALID,24.6965,VALID,153,VALID,0.776172,
2010-12-13, 03:39:04,VALID,997.757,VALID,0,VALID,87.1226,VALID,0,VALID,24.716,VALID,153,VALID,0.682031,
2010-12-13, 03:40:04,VALID,997.753,VALID,0,VALID,87.0845,VALID,0,VALID,24.6965,VALID,153,VALID,0.623828,
2010-12-13, 03:41:04,VALID,997.798,VALID,0,VALID,87.3897,VALID,0,VALID,24.716,VALID,121,VALID,0.755469,
2010-12-13, 03:42:04,VALID,997.781,VALID,0,VALID,88.0077,VALID,0,VALID,24.716,VALID,117,VALID,0.791797,
2010-12-13, 03:43:04,VALID,997.8,VALID,0,VALID,88.2976,VALID,0,VALID,24.6946,VALID,117,VALID,0.685938,
2010-12-13, 03:44:04,VALID,997.855,VALID,0,VALID,88.3586,VALID,0,VALID,24.6965,VALID,117,VALID,0.725,
2010-12-13, 03:45:04,VALID,997.902,VALID,0,VALID,88.2671,VALID,0,VALID,24.6575,VALID,126,VALID,0.815625,
2010-12-13, 03:46:04,VALID,997.972,VALID,0,VALID,88.2289,VALID,0,VALID,24.6575,VALID,170,VALID,0.792188,